| time (UTC) | temp F | wind direction | speed knots | gust knots | rain 1hr in | rain 24hr in | rain mn in | humidity % | barometer mb |
| 20260831004606 | 91 | 291 | 2.6 | 6.1 | 0.00 | 0.04 | 0.00 | 30 | 1018.1 |
| 20260831004054 | 91 | 320 | 2.6 | 6.1 | 0.00 | 0.04 | 0.00 | 30 | 1018.2 |
| 20260831003600 | 92 | 321 | 2.6 | 5.2 | 0.00 | 0.04 | 0.00 | 30 | 1018.2 |
| 20260831003107 | 92 | 236 | 1.7 | 6.1 | 0.00 | 0.04 | 0.00 | 30 | 1018.2 |
| 20260831002556 | 92 | 0 | 2.6 | 6.1 | 0.00 | 0.04 | 0.00 | 30 | 1018.2 |
| 20260831002055 | 92 | 278 | 0.9 | 7.8 | 0.00 | 0.04 | 0.00 | 30 | 1018.2 |
| 20260831001603 | 92 | 281 | 2.6 | 7.8 | 0.00 | 0.04 | 0.00 | 29 | 1018.2 |
| 20260831001056 | 92 | 313 | 2.6 | 5.2 | 0.00 | 0.04 | 0.00 | 29 | 1018.3 |
| 20260831000555 | 93 | 293 | 0.9 | 7.0 | 0.00 | 0.04 | 0.00 | 29 | 1018.3 |
| 20260831000108 | 92 | 264 | 2.6 | 7.0 | 0.00 | 0.04 | 0.00 | 29 | 1018.2 |
| 20260830235559 | 93 | 238 | 2.6 | 5.2 | 0.00 | 0.05 | 0.00 | 29 | 1018.2 |
| 20260830235057 | 93 | 308 | 1.7 | 5.2 | 0.00 | 0.05 | 0.00 | 28 | 1018.3 |
| 20260830234604 | 93 | 311 | 0.9 | 4.3 | 0.00 | 0.05 | 0.00 | 29 | 1018.3 |
| 20260830234054 | 92 | 258 | 1.7 | 5.2 | 0.00 | 0.05 | 0.00 | 29 | 1018.3 |
| 20260830233554 | 92 | 0 | 1.7 | 7.0 | 0.00 | 0.05 | 0.00 | 30 | 1018.3 |
| 20260830233106 | 92 | 339 | 1.7 | 7.0 | 0.00 | 0.05 | 0.00 | 30 | 1018.4 |
| 20260830232557 | 91 | 1 | 4.3 | 7.0 | 0.00 | 0.05 | 0.00 | 30 | 1018.4 |
| 20260830232055 | 92 | 1 | 2.6 | 5.2 | 0.00 | 0.05 | 0.00 | 29 | 1018.3 |
| 20260830231607 | 92 | 0 | 1.7 | 8.7 | 0.00 | 0.05 | 0.00 | 29 | 1018.4 |
| 20260830231054 | 92 | 303 | 4.3 | 8.7 | 0.00 | 0.05 | 0.00 | 29 | 1018.5 |
| 20260830230555 | 92 | 299 | 1.7 | 8.7 | 0.00 | 0.05 | 0.00 | 29 | 1018.5 |
| 20260830230107 | 92 | 296 | 5.2 | 8.7 | 0.00 | 0.05 | 0.00 | 29 | 1018.5 |
| 20260830225555 | 92 | 277 | 4.3 | 8.7 | 0.00 | 0.05 | 0.00 | 29 | 1018.7 |
| 20260830225055 | 93 | 293 | 5.2 | 7.8 | 0.00 | 0.05 | 0.00 | 28 | 1018.7 |
| 20260830224603 | 93 | 271 | 1.7 | 4.3 | 0.00 | 0.05 | 0.00 | 29 | 1018.8 |
| 20260830224052 | 92 | 261 | 0.0 | 4.3 | 0.00 | 0.05 | 0.00 | 30 | 1018.8 |
| 20260830223555 | 92 | 217 | 1.7 | 8.7 | 0.00 | 0.05 | 0.00 | 30 | 1018.9 |
| 20260830223108 | 92 | 340 | 4.3 | 8.7 | 0.00 | 0.05 | 0.00 | 29 | 1019.0 |
| 20260830222555 | 91 | 346 | 2.6 | 7.0 | 0.00 | 0.05 | 0.00 | 32 | 1019.1 |
| 20260830222059 | 91 | 10 | 3.5 | 7.0 | 0.00 | 0.05 | 0.00 | 32 | 1019.1 |
| 20260830221610 | 91 | 356 | 3.5 | 8.7 | 0.00 | 0.05 | 0.00 | 32 | 1019.2 |
| 20260830221057 | 91 | 13 | 1.7 | 8.7 | 0.00 | 0.05 | 0.00 | 31 | 1019.4 |
| 20260830220555 | 91 | 298 | 4.3 | 8.7 | 0.00 | 0.05 | 0.00 | 31 | 1019.5 |
| 20260830220108 | 91 | 334 | 4.3 | 8.7 | 0.00 | 0.05 | 0.00 | 31 | 1019.6 |
| 20260830215556 | 91 | 295 | 3.5 | 9.6 | 0.00 | 0.10 | 0.00 | 31 | 1019.7 |
| 20260830215055 | 91 | 239 | 6.1 | 9.6 | 0.00 | 0.10 | 0.00 | 31 | 1019.8 |
| 20260830214609 | 91 | 302 | 3.5 | 11.3 | 0.00 | 0.10 | 0.00 | 31 | 1019.8 |
| 20260830214055 | 91 | 319 | 4.3 | 11.3 | 0.00 | 0.10 | 0.00 | 31 | 1019.9 |
| 20260830213554 | 90 | 259 | 4.3 | 11.3 | 0.00 | 0.10 | 0.00 | 32 | 1019.9 |
| 20260830213108 | 90 | 325 | 5.2 | 11.3 | 0.00 | 0.10 | 0.00 | 32 | 1020.0 |
| 20260830212558 | 90 | 340 | 3.5 | 9.6 | 0.00 | 0.10 | 0.00 | 32 | 1020.0 |
| 20260830212055 | 91 | 308 | 2.6 | 9.6 | 0.00 | 0.10 | 0.00 | 32 | 1020.2 |
| 20260830211606 | 91 | 323 | 5.2 | 8.7 | 0.00 | 0.10 | 0.00 | 31 | 1020.2 |
| 20260830211055 | 91 | 317 | 3.5 | 7.8 | 0.00 | 0.10 | 0.00 | 34 | 1020.3 |
| 20260830210556 | 91 | 359 | 5.2 | 13.0 | 0.00 | 0.10 | 0.00 | 31 | 1020.4 |
| 20260830210108 | 91 | 297 | 4.3 | 13.0 | 0.00 | 0.10 | 0.00 | 31 | 1020.4 |
| 20260830205556 | 90 | 359 | 1.7 | 8.7 | 0.00 | 0.12 | 0.00 | 34 | 1020.5 |
| 20260830205054 | 90 | 8 | 4.3 | 12.2 | 0.00 | 0.12 | 0.00 | 32 | 1020.5 |
| 20260830204605 | 90 | 360 | 3.5 | 12.2 | 0.00 | 0.12 | 0.00 | 32 | 1020.4 |
| 20260830204056 | 91 | 303 | 6.1 | 12.2 | 0.00 | 0.12 | 0.00 | 31 | 1020.7 |
| 20260830203555 | 91 | 259 | 3.5 | 7.8 | 0.00 | 0.12 | 0.00 | 32 | 1020.7 |
| 20260830203107 | 91 | 348 | 4.3 | 8.7 | 0.00 | 0.12 | 0.00 | 32 | 1020.8 |
| 20260830202556 | 90 | 328 | 4.3 | 11.3 | 0.00 | 0.12 | 0.00 | 34 | 1020.9 |
| 20260830202119 | 90 | 329 | 5.2 | 11.3 | 0.00 | 0.12 | 0.00 | 33 | 1021.0 |
| 20260830201616 | 90 | 276 | 6.1 | 11.3 | 0.00 | 0.12 | 0.00 | 33 | 1021.1 |
| 20260830201056 | 89 | 314 | 5.2 | 10.4 | 0.00 | 0.12 | 0.00 | 35 | 1021.2 |
| 20260830200554 | 89 | 13 | 3.5 | 9.6 | 0.00 | 0.12 | 0.00 | 35 | 1021.3 |
| 20260830200107 | 89 | 13 | 3.5 | 9.6 | 0.00 | 0.12 | 0.00 | 37 | 1021.3 |
| 20260830195556 | 89 | 26 | 4.3 | 8.7 | 0.00 | 0.12 | 0.00 | 36 | 1021.3 |
| 20260830195056 | 89 | 134 | 0.9 | 7.8 | 0.00 | 0.12 | 0.00 | 37 | 1021.5 |
| 20260830194610 | 89 | 350 | 4.3 | 8.7 | 0.00 | 0.12 | 0.00 | 37 | 1021.6 |
| 20260830194056 | 89 | 338 | 3.5 | 8.7 | 0.00 | 0.12 | 0.00 | 39 | 1021.6 |
| 20260830193555 | 88 | 351 | 3.5 | 7.8 | 0.00 | 0.12 | 0.00 | 39 | 1021.6 |
| 20260830193107 | 87 | 356 | 2.6 | 8.7 | 0.00 | 0.12 | 0.00 | 39 | 1021.8 |
| 20260830192554 | 88 | 335 | 4.3 | 8.7 | 0.00 | 0.12 | 0.00 | 39 | 1021.9 |
| 20260830192057 | 87 | 326 | 2.6 | 8.7 | 0.00 | 0.12 | 0.00 | 40 | 1021.9 |
| 20260830191604 | 87 | 359 | 4.3 | 8.7 | 0.00 | 0.12 | 0.00 | 41 | 1022.0 |
| 20260830191054 | 87 | 316 | 5.2 | 8.7 | 0.00 | 0.12 | 0.00 | 41 | 1022.0 |
| 20260830190554 | 87 | 340 | 4.3 | 7.8 | 0.00 | 0.12 | 0.00 | 41 | 1022.1 |
| 20260830185558 | 86 | 1 | 3.5 | 6.1 | 0.00 | 0.12 | 0.00 | 45 | 1022.2 |
| 20260830185056 | 85 | 349 | 2.6 | 5.2 | 0.00 | 0.12 | 0.00 | 45 | 1022.5 |
| 20260830184609 | 84 | 53 | 1.7 | 4.3 | 0.00 | 0.12 | 0.00 | 46 | 1022.5 |
| 20260830184054 | 83 | 0 | 1.7 | 5.2 | 0.00 | 0.12 | 0.00 | 46 | 1022.6 |
| 20260830183556 | 83 | 41 | 1.7 | 7.0 | 0.00 | 0.12 | 0.00 | 47 | 1022.7 |
| 20260830183105 | 84 | 6 | 2.6 | 7.0 | 0.00 | 0.12 | 0.00 | 47 | 1022.8 |
| 20260830182556 | 83 | 4 | 2.6 | 7.0 | 0.00 | 0.12 | 0.00 | 48 | 1022.9 |
| 20260830182053 | 83 | 10 | 1.7 | 5.2 | 0.00 | 0.12 | 0.00 | 46 | 1022.9 |
| 20260830181604 | 84 | 39 | 1.7 | 3.5 | 0.00 | 0.12 | 0.00 | 46 | 1023.0 |
| 20260830181052 | 83 | 34 | 1.7 | 4.3 | 0.00 | 0.12 | 0.00 | 46 | 1022.9 |
| 20260830180557 | 83 | 25 | 1.7 | 4.3 | 0.00 | 0.12 | 0.00 | 48 | 1023.1 |
| 20260830180114 | 83 | 52 | 0.9 | 4.3 | 0.00 | 0.12 | 0.00 | 47 | 1023.0 |
| 20260830175555 | 83 | 43 | 1.7 | 3.5 | 0.00 | 0.12 | 0.00 | 46 | 1023.1 |
| 20260830175056 | 82 | 0 | 0.9 | 4.3 | 0.00 | 0.12 | 0.00 | 48 | 1023.1 |
| 20260830174616 | 82 | 11 | 1.7 | 4.3 | 0.00 | 0.12 | 0.00 | 49 | 1023.3 |
| 20260830174054 | 81 | 360 | 1.7 | 5.2 | 0.00 | 0.12 | 0.00 | 50 | 1023.2 |
| 20260830173554 | 82 | 33 | 1.7 | 5.2 | 0.00 | 0.12 | 0.00 | 53 | 1023.4 |
| 20260830173105 | 81 | 44 | 1.7 | 4.3 | 0.00 | 0.12 | 0.00 | 52 | 1023.4 |
| 20260830172555 | 80 | 13 | 1.7 | 4.3 | 0.00 | 0.12 | 0.00 | 54 | 1023.5 |
| 20260830172054 | 79 | 35 | 0.9 | 3.5 | 0.00 | 0.12 | 0.00 | 57 | 1023.5 |
| 20260830171602 | 79 | 37 | 1.7 | 3.5 | 0.00 | 0.12 | 0.00 | 58 | 1023.5 |
| 20260830171055 | 79 | 39 | 1.7 | 3.5 | 0.00 | 0.12 | 0.00 | 59 | 1023.6 |
| 20260830170555 | 79 | 39 | 0.9 | 2.6 | 0.00 | 0.12 | 0.00 | 57 | 1023.6 |
| 20260830165556 | 79 | 41 | 0.0 | 2.6 | 0.00 | 0.12 | 0.00 | 58 | 1023.6 |
| 20260830165057 | 79 | 42 | 1.7 | 3.5 | 0.00 | 0.12 | 0.00 | 58 | 1023.6 |
| 20260830164622 | 78 | 0 | 0.9 | 3.5 | 0.00 | 0.12 | 0.00 | 59 | 1023.7 |
| 20260830164055 | 77 | 30 | 0.0 | 2.6 | 0.00 | 0.12 | 0.00 | 61 | 1023.6 |
| 20260830163556 | 77 | 0 | 0.0 | 2.6 | 0.00 | 0.12 | 0.00 | 63 | 1023.7 |
| 20260830163102 | 76 | 30 | 0.0 | 2.6 | 0.00 | 0.12 | 0.00 | 63 | 1023.7 |
| 20260830162555 | 76 | 0 | 0.0 | 2.6 | 0.00 | 0.12 | 0.00 | 63 | 1023.8 |
| 20260830162054 | 75 | 30 | 0.0 | 1.7 | 0.00 | 0.12 | 0.00 | 64 | 1023.9 |
| 20260830161607 | 75 | 0 | 0.9 | 2.6 | 0.00 | 0.12 | 0.00 | 64 | 1023.8 |
| 20260830161054 | 75 | 30 | 0.0 | 2.6 | 0.00 | 0.12 | 0.00 | 66 | 1023.7 |
| 20260830160556 | 75 | 30 | 0.0 | 1.7 | 0.00 | 0.12 | 0.00 | 66 | 1023.8 |
| 20260830160104 | 74 | 0 | 0.0 | 1.7 | 0.00 | 0.12 | 0.00 | 66 | 1023.8 |
| 20260830155554 | 74 | 0 | 0.0 | 1.7 | 0.00 | 0.12 | 0.00 | 67 | 1023.9 |
| 20260830155057 | 74 | 30 | 0.0 | 2.6 | 0.00 | 0.12 | 0.00 | 67 | 1023.8 |
| 20260830154603 | 74 | 0 | 0.0 | 2.6 | 0.00 | 0.12 | 0.00 | 68 | 1023.8 |
| 20260830154055 | 73 | 0 | 0.9 | 2.6 | 0.00 | 0.12 | 0.00 | 70 | 1023.7 |
| 20260830153555 | 73 | 30 | 0.9 | 2.6 | 0.00 | 0.12 | 0.00 | 70 | 1023.7 |
| 20260830153101 | 73 | 30 | 0.0 | 1.7 | 0.00 | 0.12 | 0.00 | 71 | 1023.6 |
| 20260830152556 | 73 | 0 | 0.0 | 1.7 | 0.00 | 0.12 | 0.00 | 72 | 1023.5 |
| 20260830152058 | 73 | 0 | 0.0 | 1.7 | 0.00 | 0.12 | 0.00 | 72 | 1023.5 |
| 20260830151605 | 73 | 30 | 0.0 | 3.5 | 0.00 | 0.12 | 0.00 | 74 | 1023.4 |
| 20260830151100 | 73 | 0 | 0.0 | 3.5 | 0.00 | 0.12 | 0.00 | 72 | 1023.5 |
| 20260830150558 | 73 | 30 | 1.7 | 3.5 | 0.00 | 0.12 | 0.00 | 72 | 1023.5 |
| 20260830150104 | 72 | 30 | 0.0 | 0.9 | 0.00 | 0.12 | 0.00 | 71 | 1023.3 |
| 20260830145559 | 72 | 0 | 0.0 | 0.0 | 0.00 | 0.12 | 0.00 | 72 | 1023.5 |
| 20260830145057 | 72 | 0 | 0.0 | 0.0 | 0.00 | 0.12 | 0.00 | 72 | 1023.4 |
| 20260830144602 | 72 | 0 | 0.0 | 0.9 | 0.00 | 0.12 | 0.00 | 73 | 1023.5 |
| 20260830144054 | 72 | 0 | 0.0 | 1.7 | 0.00 | 0.12 | 0.00 | 74 | 1023.5 |
| 20260830143600 | 72 | 0 | 0.0 | 1.7 | 0.00 | 0.12 | 0.00 | 74 | 1023.7 |
| 20260830143107 | 72 | 0 | 0.0 | 1.7 | 0.00 | 0.12 | 0.00 | 74 | 1023.5 |
| 20260830142554 | 72 | 30 | 0.0 | 2.6 | 0.00 | 0.12 | 0.00 | 75 | 1023.6 |
| 20260830142055 | 71 | 0 | 0.0 | 3.5 | 0.00 | 0.12 | 0.00 | 75 | 1023.6 |
| 20260830141603 | 72 | 30 | 0.9 | 3.5 | 0.00 | 0.12 | 0.00 | 75 | 1023.6 |
| 20260830141056 | 71 | 30 | 1.7 | 7.0 | 0.00 | 0.12 | 0.00 | 74 | 1023.7 |
| 20260830140555 | 71 | 30 | 2.6 | 7.0 | 0.00 | 0.12 | 0.00 | 75 | 1023.5 |
| 20260830140106 | 71 | 27 | 4.3 | 7.0 | 0.00 | 0.12 | 0.00 | 74 | 1023.4 |
| 20260830135555 | 71 | 11 | 3.5 | 7.0 | 0.00 | 0.12 | 0.00 | 75 | 1023.4 |
| 20260830135055 | 71 | 8 | 2.6 | 4.3 | 0.00 | 0.12 | 0.00 | 75 | 1023.4 |
| 20260830134607 | 71 | 1 | 1.7 | 3.5 | 0.00 | 0.12 | 0.00 | 75 | 1023.5 |
| 20260830134055 | 71 | 349 | 0.9 | 6.1 | 0.00 | 0.12 | 0.00 | 75 | 1023.2 |
| 20260830133554 | 71 | 345 | 1.7 | 6.1 | 0.00 | 0.12 | 0.00 | 75 | 1023.2 |
| 20260830133112 | 71 | 356 | 4.3 | 6.1 | 0.00 | 0.12 | 0.00 | 75 | 1023.2 |
| 20260830132557 | 71 | 334 | 1.7 | 5.2 | 0.00 | 0.12 | 0.00 | 77 | 1023.1 |
| 20260830132054 | 70 | 311 | 2.6 | 5.2 | 0.00 | 0.12 | 0.00 | 77 | 1022.9 |
| 20260830131605 | 70 | 329 | 2.6 | 4.3 | 0.00 | 0.12 | 0.00 | 77 | 1022.8 |
| 20260830131057 | 70 | 20 | 0.0 | 5.2 | 0.00 | 0.12 | 0.00 | 77 | 1022.9 |
| 20260830130554 | 70 | 20 | 1.7 | 5.2 | 0.00 | 0.12 | 0.00 | 77 | 1022.9 |
| 20260830130107 | 70 | 20 | 3.5 | 5.2 | 0.00 | 0.12 | 0.00 | 76 | 1022.7 |
| 20260830125554 | 71 | 15 | 2.6 | 6.1 | 0.00 | 0.12 | 0.00 | 76 | 1022.5 |
| 20260830125053 | 71 | 359 | 3.5 | 6.1 | 0.00 | 0.12 | 0.00 | 75 | 1022.3 |
| 20260830124623 | 71 | 36 | 1.7 | 4.3 | 0.00 | 0.12 | 0.00 | 73 | 1022.2 |
| 20260830124055 | 72 | 360 | 1.7 | 4.3 | 0.00 | 0.12 | 0.00 | 71 | 1022.1 |
| 20260830123555 | 72 | 5 | 0.9 | 2.6 | 0.00 | 0.12 | 0.00 | 69 | 1022.1 |
| 20260830123107 | 73 | 179 | 0.0 | 3.5 | 0.00 | 0.12 | 0.00 | 67 | 1022.1 |
| 20260830122556 | 73 | 0 | 0.0 | 5.2 | 0.00 | 0.12 | 0.00 | 66 | 1022.0 |
| 20260830122056 | 73 | 176 | 1.7 | 5.2 | 0.00 | 0.12 | 0.00 | 66 | 1022.0 |
| 20260830121605 | 73 | 173 | 2.6 | 5.2 | 0.00 | 0.12 | 0.00 | 66 | 1021.9 |
| 20260830121101 | 73 | 0 | 0.0 | 4.3 | 0.00 | 0.12 | 0.00 | 66 | 1022.0 |
| 20260830120555 | 73 | 174 | 2.6 | 6.1 | 0.00 | 0.12 | 0.00 | 65 | 1021.9 |
| 20260830120107 | 73 | 174 | 2.6 | 6.1 | 0.00 | 0.12 | 0.00 | 66 | 1022.0 |
| 20260830115555 | 73 | 170 | 3.5 | 6.1 | 0.00 | 0.12 | 0.00 | 66 | 1022.1 |
| 20260830115054 | 73 | 155 | 3.5 | 6.1 | 0.00 | 0.12 | 0.00 | 67 | 1022.1 |
| 20260830114615 | 72 | 179 | 1.7 | 6.1 | 0.00 | 0.12 | 0.00 | 67 | 1022.0 |
| 20260830114055 | 72 | 184 | 0.9 | 7.8 | 0.00 | 0.12 | 0.00 | 68 | 1022.0 |
| 20260830113556 | 72 | 162 | 2.6 | 7.8 | 0.00 | 0.12 | 0.00 | 68 | 1022.0 |
| 20260830113100 | 72 | 161 | 4.3 | 7.0 | 0.00 | 0.12 | 0.00 | 68 | 1022.1 |
| 20260830112555 | 72 | 188 | 1.7 | 6.1 | 0.00 | 0.12 | 0.00 | 68 | 1022.2 |
| 20260830112055 | 72 | 170 | 0.0 | 6.1 | 0.00 | 0.12 | 0.00 | 68 | 1022.3 |
| 20260830111607 | 72 | 169 | 1.7 | 6.1 | 0.00 | 0.12 | 0.00 | 68 | 1022.4 |
| 20260830111055 | 72 | 252 | 0.0 | 4.3 | 0.00 | 0.12 | 0.00 | 69 | 1022.4 |
| 20260830110555 | 73 | 252 | 1.7 | 4.3 | 0.00 | 0.12 | 0.00 | 69 | 1022.4 |
| 20260830110124 | 73 | 257 | 1.7 | 4.3 | 0.00 | 0.12 | 0.00 | 69 | 1022.7 |
| 20260830105554 | 73 | 174 | 1.7 | 4.3 | 0.00 | 0.12 | 0.00 | 69 | 1022.8 |
| 20260830105054 | 73 | 229 | 1.7 | 4.3 | 0.00 | 0.12 | 0.00 | 69 | 1022.9 |
| 20260830104607 | 73 | 221 | 1.7 | 3.5 | 0.00 | 0.12 | 0.00 | 70 | 1022.9 |
| 20260830104055 | 73 | 204 | 0.9 | 2.6 | 0.00 | 0.12 | 0.00 | 69 | 1022.8 |
| 20260830103600 | 73 | 204 | 0.9 | 2.6 | 0.00 | 0.12 | 0.00 | 69 | 1022.8 |
| 20260830103105 | 73 | 204 | 0.9 | 2.6 | 0.00 | 0.12 | 0.00 | 67 | 1022.8 |
| 20260830102555 | 74 | 204 | 0.0 | 2.6 | 0.00 | 0.12 | 0.00 | 66 | 1022.8 |
| 20260830102056 | 74 | 204 | 0.9 | 3.5 | 0.00 | 0.12 | 0.00 | 64 | 1022.8 |
| 20260830101613 | 75 | 205 | 0.9 | 4.3 | 0.00 | 0.12 | 0.00 | 63 | 1022.8 |
| 20260830101055 | 75 | 202 | 1.7 | 4.3 | 0.00 | 0.12 | 0.00 | 61 | 1022.8 |
| 20260830100558 | 75 | 233 | 1.7 | 4.3 | 0.00 | 0.12 | 0.00 | 60 | 1022.9 |
| 20260830100058 | 75 | 266 | 0.0 | 4.3 | 0.00 | 0.12 | 0.00 | 59 | 1022.8 |
| 20260830095555 | 74 | 285 | 0.9 | 4.3 | 0.00 | 0.12 | 0.00 | 59 | 1022.8 |
| 20260830095053 | 74 | 266 | 1.7 | 4.3 | 0.00 | 0.12 | 0.00 | 61 | 1022.7 |
| 20260830094603 | 74 | 203 | 1.7 | 4.3 | 0.00 | 0.12 | 0.00 | 62 | 1022.7 |
| 20260830094058 | 73 | 238 | 1.7 | 5.2 | 0.00 | 0.12 | 0.00 | 63 | 1022.7 |
| 20260830093554 | 73 | 242 | 1.7 | 6.1 | 0.00 | 0.12 | 0.00 | 62 | 1022.6 |
| 20260830093102 | 73 | 288 | 1.7 | 6.1 | 0.00 | 0.12 | 0.00 | 64 | 1021.9 |
| 20260830092555 | 73 | 259 | 1.7 | 4.3 | 0.00 | 0.12 | 0.00 | 65 | 1021.5 |
| 20260830092055 | 73 | 278 | 1.7 | 7.0 | 0.00 | 0.12 | 0.00 | 63 | 1021.4 |
| 20260830091606 | 73 | 276 | 3.5 | 8.7 | 0.00 | 0.12 | 0.00 | 63 | 1021.0 |
| 20260830091057 | 73 | 352 | 4.3 | 8.7 | 0.00 | 0.12 | 0.00 | 64 | 1020.8 |
| 20260830090555 | 72 | 352 | 3.5 | 8.7 | 0.00 | 0.12 | 0.00 | 65 | 1021.0 |
| 20260830090111 | 72 | 314 | 3.5 | 7.0 | 0.00 | 0.12 | 0.00 | 67 | 1021.1 |
| 20260830085557 | 72 | 336 | 3.5 | 7.0 | 0.00 | 0.12 | 0.00 | 67 | 1021.2 |
| 20260830085053 | 72 | 326 | 2.6 | 6.1 | 0.00 | 0.12 | 0.00 | 68 | 1021.5 |
| 20260830084603 | 73 | 296 | 3.5 | 6.1 | 0.00 | 0.12 | 0.00 | 67 | 1021.7 |
| 20260830084054 | 73 | 293 | 2.6 | 3.5 | 0.00 | 0.12 | 0.00 | 67 | 1021.9 |
| 20260830083555 | 73 | 293 | 0.0 | 4.3 | 0.00 | 0.12 | 0.00 | 67 | 1022.2 |
| 20260830083144 | 73 | 0 | 1.7 | 5.2 | 0.00 | 0.12 | 0.00 | 67 | 1022.2 |
| 20260830082555 | 73 | 293 | 1.7 | 5.2 | 0.00 | 0.12 | 0.00 | 67 | 1022.4 |
| 20260830082054 | 73 | 293 | 1.7 | 5.2 | 0.00 | 0.12 | 0.00 | 66 | 1022.4 |
| 20260830081605 | 72 | 293 | 2.6 | 5.2 | 0.00 | 0.12 | 0.00 | 66 | 1022.4 |
| 20260830081052 | 72 | 291 | 1.7 | 4.3 | 0.00 | 0.12 | 0.00 | 68 | 1022.5 |
| 20260830080555 | 72 | 38 | 0.0 | 2.6 | 0.00 | 0.12 | 0.00 | 68 | 1022.7 |
| 20260830080104 | 72 | 39 | 0.0 | 2.6 | 0.00 | 0.12 | 0.00 | 68 | 1022.8 |
| 20260830075555 | 72 | 39 | 0.9 | 2.6 | 0.00 | 0.12 | 0.00 | 68 | 1022.8 |
| 20260830075053 | 73 | 39 | 0.0 | 1.7 | 0.00 | 0.12 | 0.00 | 67 | 1022.6 |
| 20260830074602 | 73 | 39 | 0.0 | 1.7 | 0.00 | 0.12 | 0.00 | 65 | 1022.7 |
| 20260830074054 | 73 | 39 | 0.0 | 2.6 | 0.00 | 0.12 | 0.00 | 64 | 1022.7 |
| 20260830073558 | 73 | 0 | 0.0 | 3.5 | 0.00 | 0.12 | 0.00 | 65 | 1022.7 |
| 20260830073109 | 73 | 39 | 1.7 | 3.5 | 0.00 | 0.12 | 0.00 | 65 | 1022.7 |
| 20260830072555 | 73 | 39 | 2.6 | 4.3 | 0.00 | 0.12 | 0.00 | 65 | 1022.7 |
| 20260830072055 | 73 | 42 | 1.7 | 4.3 | 0.00 | 0.12 | 0.00 | 65 | 1022.8 |
| 20260830071604 | 73 | 49 | 0.9 | 3.5 | 0.00 | 0.12 | 0.00 | 65 | 1022.8 |
| 20260830071056 | 74 | 49 | 2.6 | 6.1 | 0.00 | 0.12 | 0.00 | 64 | 1022.7 |
| 20260830070555 | 74 | 49 | 1.7 | 11.3 | 0.00 | 0.12 | 0.00 | 63 | 1022.7 |
| 20260830070109 | 74 | 50 | 5.2 | 11.3 | 0.00 | 0.12 | 0.00 | 62 | 1022.6 |
| 20260830065556 | 74 | 24 | 4.3 | 8.7 | 0.00 | 0.12 | 0.12 | 63 | 1022.7 |
| 20260830065056 | 74 | 39 | 3.5 | 6.1 | 0.00 | 0.12 | 0.12 | 64 | 1022.5 |
| 20260830064609 | 75 | 54 | 2.6 | 6.1 | 0.00 | 0.12 | 0.12 | 62 | 1022.4 |
| 20260830064052 | 75 | 295 | 0.0 | 3.5 | 0.00 | 0.12 | 0.12 | 59 | 1022.1 |
| 20260830063556 | 75 | 295 | 1.7 | 3.5 | 0.00 | 0.12 | 0.12 | 58 | 1021.8 |
| 20260830063108 | 75 | 293 | 0.9 | 6.1 | 0.00 | 0.12 | 0.12 | 59 | 1021.6 |
| 20260830062554 | 75 | 0 | 0.9 | 6.1 | 0.00 | 0.12 | 0.12 | 59 | 1021.4 |
| 20260830062058 | 75 | 0 | 1.7 | 6.1 | 0.00 | 0.12 | 0.12 | 59 | 1021.3 |
| 20260830061602 | 75 | 310 | 2.6 | 6.1 | 0.00 | 0.12 | 0.12 | 58 | 1021.3 |
| 20260830061055 | 75 | 291 | 3.5 | 7.0 | 0.00 | 0.12 | 0.12 | 58 | 1021.0 |
| 20260830060555 | 76 | 290 | 2.6 | 13.0 | 0.00 | 0.12 | 0.12 | 58 | 1020.9 |
| 20260830055555 | 75 | 288 | 6.1 | 12.2 | 0.00 | 0.12 | 0.12 | 60 | 1020.8 |
| 20260830055055 | 74 | 323 | 3.5 | 7.8 | 0.00 | 0.12 | 0.12 | 63 | 1020.8 |
| 20260830054609 | 72 | 301 | 0.9 | 3.5 | 0.00 | 0.12 | 0.12 | 64 | 1020.8 |
| 20260830054055 | 72 | 323 | 1.7 | 6.1 | 0.00 | 0.12 | 0.12 | 65 | 1020.8 |
| 20260830053554 | 72 | 311 | 1.7 | 6.1 | 0.01 | 0.12 | 0.12 | 66 | 1020.9 |
| 20260830053104 | 71 | 343 | 1.7 | 5.2 | 0.02 | 0.12 | 0.12 | 66 | 1020.9 |
| 20260830052552 | 71 | 328 | 0.9 | 6.1 | 0.03 | 0.12 | 0.12 | 68 | 1020.8 |
| 20260830052057 | 71 | 309 | 2.6 | 6.1 | 0.04 | 0.12 | 0.12 | 68 | 1020.6 |
| 20260830051603 | 71 | 288 | 1.7 | 6.1 | 0.04 | 0.12 | 0.12 | 70 | 1020.6 |
| 20260830051053 | 72 | 266 | 1.7 | 6.1 | 0.04 | 0.12 | 0.12 | 71 | 1020.6 |
| 20260830050554 | 72 | 248 | 3.5 | 9.6 | 0.04 | 0.12 | 0.12 | 71 | 1020.7 |
| 20260830050105 | 72 | 265 | 2.6 | 10.4 | 0.04 | 0.12 | 0.12 | 69 | 1020.8 |
| 20260830045555 | 72 | 297 | 6.1 | 10.4 | 0.04 | 0.12 | 0.12 | 68 | 1020.7 |
| 20260830045054 | 72 | 249 | 2.6 | 7.0 | 0.04 | 0.12 | 0.12 | 70 | 1020.7 |
| 20260830044603 | 72 | 261 | 2.6 | 6.1 | 0.04 | 0.12 | 0.12 | 68 | 1020.7 |
| 20260830044055 | 73 | 270 | 1.7 | 11.3 | 0.04 | 0.12 | 0.12 | 65 | 1020.9 |
| 20260830043552 | 74 | 216 | 3.5 | 11.3 | 0.03 | 0.11 | 0.11 | 61 | 1020.9 |
| 20260830043104 | 75 | 245 | 3.5 | 11.3 | 0.02 | 0.10 | 0.10 | 56 | 1021.2 |
| 20260830042558 | 75 | 226 | 4.3 | 8.7 | 0.01 | 0.09 | 0.09 | 58 | 1021.3 |
| 20260830042057 | 76 | 208 | 5.2 | 8.7 | 0.00 | 0.08 | 0.08 | 55 | 1021.4 |
| 20260830041605 | 80 | 205 | 2.6 | 6.1 | 0.00 | 0.08 | 0.08 | 53 | 1021.4 |
| 20260830041059 | 81 | 203 | 1.7 | 6.1 | 0.00 | 0.08 | 0.08 | 47 | 1021.7 |
| 20260830040554 | 82 | 251 | 0.0 | 5.2 | 0.00 | 0.08 | 0.08 | 45 | 1021.6 |
| 20260830040106 | 82 | 251 | 1.7 | 5.2 | 0.00 | 0.08 | 0.08 | 44 | 1021.4 |
| 20260830035555 | 81 | 273 | 0.9 | 3.5 | 0.00 | 0.08 | 0.08 | 45 | 1021.5 |
| 20260830035059 | 81 | 0 | 0.0 | 3.5 | 0.00 | 0.08 | 0.08 | 46 | 1021.3 |
| 20260830034605 | 81 | 0 | 0.0 | 3.5 | 0.00 | 0.08 | 0.08 | 47 | 1021.3 |
| 20260830034055 | 81 | 217 | 0.9 | 3.5 | 0.00 | 0.08 | 0.08 | 47 | 1021.3 |
| 20260830033552 | 81 | 208 | 0.9 | 2.6 | 0.00 | 0.08 | 0.08 | 46 | 1021.1 |
| 20260830033104 | 81 | 195 | 0.9 | 2.6 | 0.00 | 0.08 | 0.08 | 46 | 1021.0 |
| 20260830032553 | 81 | 179 | 0.9 | 1.7 | 0.00 | 0.08 | 0.08 | 46 | 1021.0 |
| 20260830032055 | 82 | 0 | 0.0 | 1.7 | 0.00 | 0.08 | 0.08 | 45 | 1020.9 |
| 20260830031620 | 82 | 0 | 0.0 | 7.0 | 0.00 | 0.08 | 0.08 | 46 | 1020.8 |
| 20260830031056 | 82 | 178 | 1.7 | 9.6 | 0.00 | 0.08 | 0.08 | 44 | 1020.6 |
| 20260830030558 | 82 | 169 | 5.2 | 9.6 | 0.00 | 0.08 | 0.08 | 46 | 1020.4 |
| 20260830030109 | 81 | 163 | 6.1 | 9.6 | 0.00 | 0.08 | 0.08 | 47 | 1020.4 |
| 20260830025554 | 80 | 169 | 5.2 | 9.6 | 0.00 | 0.08 | 0.08 | 50 | 1020.2 |
| 20260830025054 | 80 | 127 | 4.3 | 9.6 | 0.00 | 0.08 | 0.08 | 52 | 1020.2 |
| 20260830024604 | 81 | 113 | 3.5 | 8.7 | 0.00 | 0.08 | 0.08 | 50 | 1019.9 |
| 20260830024053 | 83 | 304 | 0.0 | 3.5 | 0.00 | 0.08 | 0.08 | 46 | 1019.5 |
| 20260830023552 | 83 | 0 | 0.0 | 3.5 | 0.00 | 0.08 | 0.08 | 42 | 1019.3 |
| 20260830023111 | 83 | 0 | 0.0 | 3.5 | 0.00 | 0.08 | 0.08 | 43 | 1019.2 |
| 20260830022555 | 83 | 276 | 0.0 | 2.6 | 0.00 | 0.08 | 0.08 | 43 | 1019.1 |
| 20260830022054 | 83 | 254 | 0.0 | 1.7 | 0.00 | 0.08 | 0.08 | 42 | 1019.0 |
| 20260830021600 | 83 | 0 | 0.0 | 2.6 | 0.00 | 0.08 | 0.08 | 42 | 1018.8 |
| 20260830021054 | 84 | 0 | 0.0 | 5.2 | 0.00 | 0.08 | 0.08 | 42 | 1018.8 |
| 20260830020557 | 84 | 254 | 0.9 | 5.2 | 0.00 | 0.08 | 0.08 | 42 | 1018.8 |
| 20260830020103 | 84 | 0 | 0.9 | 3.5 | 0.00 | 0.08 | 0.08 | 41 | 1018.8 |
| 20260830015555 | 84 | 139 | 0.9 | 7.0 | 0.00 | 0.08 | 0.08 | 41 | 1018.8 |
| 20260830015058 | 85 | 0 | 0.0 | 7.0 | 0.00 | 0.08 | 0.08 | 40 | 1018.7 |
| 20260830014602 | 85 | 281 | 1.7 | 9.6 | 0.00 | 0.08 | 0.08 | 40 | 1018.8 |
| 20260830014053 | 85 | 267 | 2.6 | 9.6 | 0.00 | 0.08 | 0.08 | 39 | 1018.7 |
| 20260830013555 | 86 | 272 | 1.7 | 9.6 | 0.00 | 0.08 | 0.08 | 39 | 1018.6 |
| 20260830013114 | 86 | 308 | 3.5 | 9.6 | 0.00 | 0.08 | 0.08 | 39 | 1018.8 |
| 20260830012553 | 86 | 274 | 3.5 | 12.2 | 0.00 | 0.08 | 0.08 | 38 | 1018.8 |
| 20260830012054 | 87 | 293 | 4.3 | 12.2 | 0.00 | 0.08 | 0.08 | 38 | 1018.7 |
| 20260830011601 | 87 | 275 | 4.3 | 12.2 | 0.00 | 0.08 | 0.08 | 38 | 1018.7 |
| 20260830011055 | 87 | 291 | 7.0 | 14.8 | 0.00 | 0.08 | 0.08 | 37 | 1018.7 |
| 20260830010603 | 88 | 297 | 7.8 | 14.8 | 0.00 | 0.08 | 0.08 | 36 | 1018.7 |
| 20260830010109 | 88 | 285 | 6.1 | 10.4 | 0.00 | 0.08 | 0.08 | 35 | 1018.6 |
| 20260830005557 | 88 | 300 | 6.1 | 10.4 | 0.00 | 0.08 | 0.08 | 35 | 1018.4 |
| 20260830005056 | 88 | 283 | 6.1 | 10.4 | 0.00 | 0.08 | 0.08 | 34 | 1018.5 |